This is the latest recevied weather packets stored in our database for station/object W4KAB. If no packets are shown the sender has not sent any weather packets the latest 10 day(s).
| Time | Temp. | Humidity | Pressure | Rain* | Wind** | Luminosity | Snow |
|---|---|---|---|---|---|---|---|
| 1777944345 | 17.78° C | 52% | 1015.6 hPa | 0 mm | - | 0 W/m² | - |
| 1777944042 | 18.33° C | 50% | 1015.6 hPa | 0 mm | - | 0 W/m² | - |
| 1777943737 | 18.33° C | 51% | 1015.4 hPa | 0 mm | - | 0 W/m² | - |
| 1777943435 | 18.33° C | 50% | 1015.6 hPa | 0 mm | - | 0 W/m² | - |
| 1777943130 | 18.89° C | 50% | 1015.5 hPa | 0 mm | - | 0 W/m² | - |
| 1777942827 | 18.89° C | 49% | 1015.5 hPa | 0 mm | - | 0 W/m² | - |
| 1777942523 | 19.44° C | 48% | 1015.5 hPa | 0 mm | - | 0 W/m² | - |
| 1777942221 | 20.56° C | 46% | 1015.4 hPa | 0 mm | - | 0 W/m² | - |
| 1777941918 | 20.56° C | 43% | 1015.5 hPa | 0 mm | - | 0 W/m² | - |
| 1777941614 | 20.56° C | 42% | 1015.4 hPa | 0 mm | - | 0 W/m² | - |
| 1777941311 | 20.56° C | 43% | 1015.3 hPa | 0 mm | - | 0 W/m² | - |
| 1777941009 | 20.56° C | 43% | 1015.2 hPa | 0 mm | - | 0 W/m² | - |
| 1777940704 | 20.56° C | 44% | 1015.3 hPa | 0 mm | - | 0 W/m² | - |
| 1777940403 | 20.56° C | 43% | 1015 hPa | 0 mm | - | 0 W/m² | - |
| 1777940100 | 21.11° C | 46% | 1015.2 hPa | 0 mm | - | 0 W/m² | - |
| 1777939796 | 21.11° C | 47% | 1015.1 hPa | 0 mm | - | 1 W/m² | - |
| 1777939494 | 21.11° C | 45% | 1015.1 hPa | 0 mm | - | 2 W/m² | - |
| 1777939191 | 21.67° C | 45% | 1015 hPa | 0 mm | - | 3 W/m² | - |
| 1777938888 | 21.67° C | 45% | 1014.9 hPa | 0 mm | - | 4 W/m² | - |
| 1777938584 | 22.78° C | 40% | 1015 hPa | 0 mm | - | 6 W/m² | - |
| 1777938282 | 22.78° C | 41% | 1014.7 hPa | 0 mm | - | 7 W/m² | - |
| 1777937978 | 22.78° C | 40% | 1014.8 hPa | 0 mm | - | 10 W/m² | - |
| 1777937674 | 22.78° C | 39% | 1014.8 hPa | 0 mm | - | 12 W/m² | - |
| 1777937371 | 23.33° C | 41% | 1014.8 hPa | 0 mm | - | 14 W/m² | - |
| 1777937068 | 23.33° C | 38% | 1014.8 hPa | 0 mm | - | 15 W/m² | - |
* Rain latest hour (hover to see other rain measurements)
** Current wind speed in m/s (hover to see current wind gust speed)